Location: Deep South Regional Star Gaze
(30.9929°N, 90.9586°W)
Time: 17:15:25
(UTC-05:00)

Daily predictions for brighter satellites

Satellite Brightness Start Highest point End
(mag) Time Altitude Azimuth Time Altitude Azimuth Time Altitude Azimuth
Meteosat 1 Rocket2 3.8 20:17:09 10° WSW 20:21:49 67° S 20:28:55 10° E
Cosmos 2278 Rocket 3.0 20:27:14 10° SSE 20:32:02 29° ESE 20:36:50 10° NE
COSMOS 2406 3.7 20:26:47 10° N 20:32:16 45° ENE 20:37:42 10° SE
Cosmos 1844 Rocket 2.7 20:26:43 10° S 20:32:19 69° ESE 20:37:56 10° NNE
Cosmos 1825 4.2 20:31:36 10° ESE 20:33:08 12° E 20:34:41 10° ENE
Coronas F rocket 1.1 20:31:25 10° S 20:34:03 77° E 20:36:40 10° N
Cosmos 2084 3.3 20:30:49 10° SSW 20:34:38 52° ESE 20:38:22 10° NE
Cosmos 1844 3.9 20:31:50 10° S 20:37:24 54° ESE 20:43:02 10° NNE
FENGYUN 3A 3.7 20:34:08 10° SSE 20:39:29 68° ENE 20:44:50 10° N
Cosmos 2056 Rocket 3.7 20:34:21 10° SSW 20:39:30 76° WNW 20:44:38 10° NNE
BREEZE-M DEB (TANK) 3.9 20:39:34 10° N 20:41:14 19° NE 20:43:46 10° E
Meteor 2-10 Rocket 3.8 20:35:37 10° N 20:41:18 60° E 20:46:48 10° SSE
Cosmos 1908 Rocket 4.5 20:40:41 10° SSE 20:44:26 28° E 20:48:12 10° NNE
Cosmos 1733 Rocket 3.0 20:41:00 10° S 20:45:24 76° E 20:49:47 10° N
Abrixas 4.0 20:47:26 10° S 20:49:34 18° SE 20:50:21 16° ESE
PSLV R/B 3.7 20:46:45 10° NW 20:50:07 56° NNE 20:52:46 15° ESE
CZ-4 DEB 3.0 20:56:27 16° SSE 20:58:47 48° ENE 21:01:52 10° N
SL-27 R/B 2.6 20:56:28 10° N 21:00:03 57° ENE 21:02:33 18° SSE
CZ-2D R/B 3.9 20:57:54 10° S 21:01:38 55° W 21:05:22 10° NNW
deb Chang Zheng 4 4.1 20:57:30 10° NNE 21:01:38 38° E 21:05:46 10° SSE
GPS 2-05 Rocket1 3.9 21:00:06 10° W 21:03:42 46° N 21:07:15 10° ENE
Cosmos 2154 Rocket 4.1 21:00:43 10° SSE 21:06:44 55° E 21:12:45 10° NNE
Meteor 1-10 Rocket 4.2 21:02:09 10° N 21:07:56 78° E 21:13:35 10° S
Cosmos 2297 4.5 21:03:29 10° SSE 21:08:18 29° ESE 21:13:10 10° NE
EO 1 Delta rocket 4.4 21:04:29 10° NNE 21:09:47 43° E 21:13:38 14° SSE
YAOGAN 11 4.1 21:07:02 14° SSE 21:10:52 70° ENE 21:15:25 10° N
ERBS 3.1 21:07:42 10° NW 21:11:03 48° SW 21:13:13 19° SSE
Envisat 3.6 21:09:02 20° SE 21:11:58 38° ENE 21:16:38 10° N
Cosmos 1862 3.5 21:09:16 12° SSE 21:12:53 52° E 21:16:52 10° NNE
H-2A R/B 2.9 21:12:33 23° ESE 21:14:23 33° ENE 21:18:12 10° N
SEDSat Delta rocket 3.0 21:10:08 10° WSW 21:14:30 52° SSE 21:16:42 24° E
Intelsat 3F5 C 3.9 21:13:16 10° W 21:16:36 80° S 21:17:42 37° E
CZ-3C R/B 3.5 20:31:37 10° WSW 21:18:39 44° S 21:23:56 22° SE
APEX 3.7 21:17:49 27° SSE 21:19:15 38° ESE 21:23:23 10° NE
OAO 1 Rocket 4.4 21:14:57 10° WSW 21:20:17 84° NNW 21:25:16 12° ENE
Cosmos 1420 Rocket 4.1 21:17:53 10° S 21:22:58 53° ESE 21:28:03 10° NNE
COSMOS 2487 3.8 21:20:13 10° NNE 21:23:15 25° ENE 21:23:26 24° ENE
Cosmos 1606 2.8 21:19:36 10° N 21:23:28 55° E 21:24:55 33° SE
ALOS 3.9 21:21:21 10° SSW 21:25:31 32° W 21:29:43 10° NW
ERS-1 Rocket 2.9 21:22:47 18° SSE 21:26:31 84° ENE 21:31:35 10° N
SJ-11-01 4.3 21:26:49 19° S 21:30:15 84° WSW 21:35:02 10° NNW
Meteor 1-27 Rocket 3.6 21:29:10 10° N 21:34:42 77° E 21:37:56 26° SSE
Cosmos 407 Rocket 3.6 21:30:12 10° NNW 21:35:30 80° WSW 21:38:44 24° S
Cosmos 1140 Rocket 4.2 21:33:47 10° N 21:38:31 36° ENE 21:39:35 32° E
Okean 3 3.6 21:36:23 10° N 21:40:33 52° E 21:41:10 47° ESE
H-2A R/B 4.1 21:42:13 12° ENE 21:42:24 12° ENE 21:44:33 10° NE
Cosmos 1782 4.0 21:39:24 10° NNW 21:43:11 40° W 21:46:08 15° SSW
USA 234 4.3 21:39:53 10° ENE 21:43:02 23° E 21:43:02 23° E
Okean 2 Rocket 2.9 21:45:11 39° S 21:46:45 76° E 21:51:09 10° N
ARGOS 4.1 21:46:31 28° E 21:47:09 28° ENE 21:51:39 10° NNE
CZ-4B R/B 3.7 21:45:41 10° NNE 21:50:13 43° E 21:50:13 43° E
Cosmos 1184 Rocket 3.7 21:52:57 34° SW 21:53:56 47° W 21:57:10 10° N
Cosmos 1939 Rocket 3.4 21:52:48 37° SSW 21:54:01 53° W 21:57:51 10° NNW
ATLAS 5 CENTAUR R/B 3.8 21:48:56 10° NW 21:54:29 34° WSW 21:58:59 15° SSW
YAOGAN 6 3.6 21:56:01 34° NE 21:56:01 34° NE 21:58:24 10° N
Terra 4.1 21:56:47 12° NE 21:56:47 12° NE 21:57:47 10° NE
OAO 3 Rocket 3.3 21:51:12 10° WSW 21:56:10 79° NNW 21:58:14 35° ENE
ISS 0.3 21:55:51 10° NW 21:56:20 10° NNW 21:56:50 10° NNW
Cosmos 1408 3.9 21:55:09 19° SW 21:57:19 39° W 22:00:46 10° N
Cosmos 1782 Rocket 4.0 21:54:44 24° SSW 21:57:21 63° W 22:01:47 10° N
SPOT 1/Viking Rocket 4.1 21:57:07 40° E 21:57:34 40° ENE 22:02:25 10° N
Atlas Centaur 2 1.9 21:55:21 10° W 21:57:58 38° SW 21:57:58 38° SW
Cosmos 1242 Rocket 3.4 21:55:20 10° N 21:58:03 40° NE 21:58:03 40° NE
Meteor 2-13 Rocket 4.4 21:55:44 22° S 21:59:51 89° ESE 22:06:02 10° N
Cosmos 2218 Rocket 4.1 22:00:20 43° SE 22:02:12 59° E 22:08:28 10° NNE
Nadezhda 3 Rocket 4.4 21:59:42 10° NNW 22:06:00 64° W 22:09:52 24° SSW
SPOT 5 3.0 22:04:32 49° S 22:06:00 86° WSW 22:11:23 10° NNW
Cosmos 1238 Rocket 3.2 22:03:35 10° NNW 22:07:03 56° W 22:07:26 53° WSW
Cosmos 1825 4.1 22:05:45 14° SW 22:08:25 28° W 22:11:45 10° NNW
SL-08 R/B 4.5 22:11:40 49° SSE 22:13:24 71° E 22:19:50 10° N
MetOp-A 4.0 22:13:08 60° S 22:14:11 86° WSW 22:19:33 10° NNW
Cosmos 1959 Rocket 4.3 22:13:55 52° SSE 22:15:27 77° E 22:21:33 10° N
Cosmos 2278 Rocket 4.0 22:11:03 10° WSW 22:15:57 30° WNW 22:20:53 10° N
Cosmos 1833 Rocket 3.7 22:12:41 10° N 22:17:28 31° ENE 22:17:28 31° ENE
Cosmos 1975 Rocket 3.3 22:13:36 10° NNW 22:17:52 62° W 22:18:01 61° WSW
DNEPR-1 R/B 4.0 22:14:40 10° NNW 22:19:11 58° NNE 22:19:11 58° NNE
Cosmos 1850 Rocket 3.9 22:14:53 10° N 22:20:12 70° ENE 22:20:15 70° ENE
Cosmos 1727 Rocket 4.3 22:16:39 10° N 22:22:23 45° ENE 22:22:23 45° ENE
Meteosat 1 Rocket2 4.4 22:16:49 10° W 22:22:55 63° S 22:24:32 53° SE
USA 229 DEB 4.2 22:25:46 10° NNW 22:32:34 45° NE 22:33:32 43° ENE
USA 229 4.2 22:25:52 10° NNW 22:32:40 45° NE 22:33:38 43° ENE
BREEZE-M DEB (TANK) 3.6 22:31:19 10° NW 22:38:18 44° NNE 22:38:18 44° NNE
Meteor 1-18 Rocket 4.5 22:33:18 10° N 22:38:39 60° NE 22:38:39 60° NE
Cosmos 1741 Rocket 4.1 22:35:58 10° NNW 22:40:43 70° WNW 22:40:43 70° WNW
Cosmos 2082 Rocket 2.4 22:35:42 10° NNW 22:40:49 63° NE 22:40:49 63° NE
Timation 2 Rocket 4.0 22:43:14 10° NNW 22:49:06 62° WSW 22:49:12 62° WSW
Cosmos 1110 Rocket 4.5 22:50:53 56° N 22:50:53 56° N 22:55:03 10° NNE
H-2A R/B 3.1 23:22:52 43° NW 23:22:52 43° NW 23:26:31 10° NNW
Cosmos 2369 Rocket 4.1 23:26:50 20° NE 23:26:50 20° NE 23:28:32 10° NNE
USA 234 3.6 23:22:08 10° NNE 23:28:32 59° NW 23:30:12 46° W
Terra 3.8 23:35:41 26° NNW 23:35:41 26° NNW 23:37:52 10° NNW
CZ-3 Stage 3 3.9 22:59:22 10° W 23:37:01 79° SSW 23:37:01 79° SSW
